Location: Saratoga Springs
(43.0831°N, 73.7850°W)
Time: 17:31:51
(UTC-04:00)

Vanguard 2 - Pass Details

Date: 19 April 2024
Orbit: 553 x 2914 km, 32.9° (Epoch: 19 May)

Event Time Altitude Azimuth Distance (km) Brightness Sun altitude
Rises 02:50:23 0° 232° (SW) 5,900 - -29.4°
Reaches altitude 10° 02:54:06 10° 227° (SW) 5,140 - -29.1°
Exits shadow 03:03:12 38° 200° (SSW) 3,737 10.4 -28.1°
Maximum altitude 03:09:07 49° 159° (SSE) 3,470 10.5 -27.4°
Drops below altitude 10° 03:25:16 10° 92° (E) 5,506 12.3 -25.5°
Sets 03:29:24 0° 87° (E) 6,335 12.8 -25.0°
